User: anonymous   Login
Location: Fisheating Creek Campgrounds
(26.9333°N, 81.3167°W)
Time: 02:34:06
(UTC-04:00)
Language:

NATO 3D Rocket - Orbit

View from above orbital plane
View from above orbital plane
View from above satellite
View from above satellite

Ground track
Ground track

The orbit data is extracted from the following two-line orbital elements,

1 15392U 84115B   16207.86366388 +.00000224 +00000-0 +49124-4 0  9995
2 15392 021.5000 002.2628 1034603 237.7153 111.8882 12.45534134425502
Epoch (UTC): 25 July 2016 20:43:40
Eccentricity: 0.1034603
inclination: 21.5000°
perigee height: 670 km
apogee height: 2296 km
right ascension of ascending node: 2.2628°
argument of perigee: 237.7153°
revolutions per day: 12.45534134
mean anomaly at epoch: 111.8882°
orbit number at epoch: 42550

The dashed part of the orbit path shows where the satellite is in the earth's shadow,  

DLR